Location: Melbourne
(37.8170°S, 144.9670°E)
Time: 10:19:56
(UTC+10:00)

deb Explorer IX - All Passes

Search period start: 28 June 2017 00:00
Search period end: 08 July 2017 00:00
Orbit: 538 x 1127 km, 38.8° (Epoch: 26 June)

Date Brightness Start Highest point End Pass type
(mag) Time Alt. Az. Time Alt. Az. Time Alt. Az.
28 Jun - 04:50:44 10° NNE 04:51:59 11° NE 04:53:15 10° ENE visible
28 Jun - 06:32:35 10° NW 06:38:08 43° NNE 06:44:33 10° E visible
28 Jun - 08:18:57 10° WNW 08:25:24 88° NNE 08:32:45 10° E daylight
28 Jun - 10:06:19 10° W 10:13:18 85° S 10:20:52 10° E daylight
28 Jun - 11:53:52 10° WSW 12:01:06 62° NNW 12:08:26 10° NE daylight
28 Jun - 13:42:22 10° W 13:48:08 24° NW 13:53:46 10° NNE daylight
29 Jun - 04:30:50 10° NNE 04:32:10 11° NE 04:33:33 10° ENE visible
29 Jun - 06:12:54 10° NW 06:18:19 43° NNE 06:24:37 10° E visible
29 Jun - 07:59:16 10° WNW 08:05:33 89° N 08:12:49 10° E daylight
29 Jun - 09:46:35 10° W 09:53:26 85° S 10:00:58 10° E daylight
29 Jun - 11:34:05 10° WSW 11:41:11 60° NNW 11:48:32 10° NE daylight
29 Jun - 13:22:35 10° W 13:28:14 23° NW 13:33:48 10° N daylight
30 Jun - 04:10:58 10° NNE 04:12:22 11° NE 04:13:50 10° ENE visible
30 Jun - 05:53:15 10° NW 05:58:30 44° NNE 06:04:42 10° E visible
30 Jun - 07:39:36 10° WNW 07:45:45 90° NNE 07:52:53 10° E daylight
30 Jun - 09:26:51 10° W 09:33:35 86° S 09:41:03 10° E daylight
30 Jun - 11:14:17 10° W 11:21:17 59° NNW 11:28:37 10° NE daylight
30 Jun - 13:02:50 10° W 13:08:19 23° NW 13:13:47 10° N daylight
01 Jul - 03:51:07 10° NNE 03:52:35 11° NE 03:54:05 10° ENE visible
01 Jul - 05:33:35 10° NW 05:38:42 45° NNE 05:44:46 10° E visible
01 Jul - 07:19:57 10° W 07:25:56 89° S 07:32:57 10° E daylight
01 Jul - 09:07:09 10° W 09:13:43 87° S 09:21:07 10° E daylight
01 Jul - 10:54:31 10° W 11:01:22 57° NNW 11:08:41 10° NE daylight
01 Jul - 12:43:06 10° W 12:48:23 21° NW 12:53:44 10° N daylight
02 Jul - 03:31:17 10° NNE 03:32:47 11° NE 03:34:21 10° ENE visible
02 Jul - 05:13:55 10° NW 05:18:55 46° NNE 05:24:50 10° E visible
02 Jul - 07:00:18 10° W 07:06:07 88° S 07:12:59 10° E visible
02 Jul - 08:47:26 10° W 08:53:52 87° S 09:01:11 10° E daylight
02 Jul - 10:34:46 10° W 10:41:28 55° NNW 10:48:43 10° NE daylight
02 Jul - 12:23:23 10° W 12:28:28 20° NW 12:33:38 10° N daylight
03 Jul - 03:11:28 10° NNE 03:13:01 11° NE 03:14:37 10° ENE visible
03 Jul - 04:54:17 10° NW 04:59:08 47° NNE 05:04:55 10° E visible
03 Jul - 06:40:40 10° W 06:46:18 87° S 06:53:01 10° E visible
03 Jul - 08:27:45 10° W 08:34:01 88° SSE 08:41:13 10° E daylight
03 Jul - 10:15:01 10° W 10:21:34 53° NNW 10:28:44 10° NE daylight
03 Jul - 12:03:42 10° W 12:08:33 19° NW 12:13:31 10° N daylight
04 Jul - 02:51:38 10° NNE 02:53:13 11° NE 02:54:53 10° ENE visible
04 Jul - 04:34:37 10° NW 04:39:22 48° NNE 04:44:59 10° E visible
04 Jul - 06:21:01 10° W 06:26:31 86° S 06:33:04 10° E visible
04 Jul - 08:08:05 10° W 08:14:10 89° SSE 08:21:15 10° E daylight
04 Jul - 09:55:17 10° W 10:01:40 51° NNW 10:08:43 10° NE daylight
04 Jul - 11:44:03 10° W 11:48:37 18° NW 11:53:21 10° N daylight
05 Jul - 02:31:48 10° NNE 02:33:27 12° NE 02:35:10 10° ENE night (unlit)
05 Jul - 04:14:58 10° NW 04:19:36 49° NNE 04:25:04 10° E visible
05 Jul - 06:01:24 10° W 06:06:43 85° S 06:13:06 10° E visible
05 Jul - 07:48:24 10° W 07:54:19 90° WNW 08:01:16 10° ENE daylight
05 Jul - 09:35:34 10° W 09:41:46 49° NNW 09:48:42 10° NE daylight
05 Jul - 11:24:26 10° WNW 11:28:42 17° NW 11:33:08 10° N daylight
06 Jul - 02:11:58 10° NNE 02:13:40 12° NE 02:15:27 10° ENE night (unlit)
06 Jul - 03:55:20 10° NW 03:59:50 50° NNE 04:05:09 10° E visible
06 Jul - 05:41:46 10° W 05:46:57 84° S 05:53:09 10° E visible
06 Jul - 07:28:43 10° W 07:34:29 89° N 07:41:17 10° ENE daylight
06 Jul - 09:15:52 10° W 09:21:52 46° NNW 09:28:39 10° NE daylight
06 Jul - 11:04:52 10° WNW 11:08:47 16° NW 11:12:52 10° N daylight
07 Jul - 01:52:08 10° NNE 01:53:54 12° NE 01:55:45 10° ENE night (unlit)
07 Jul - 03:35:41 10° NW 03:40:05 51° NNE 03:45:15 10° E visible
07 Jul - 05:22:09 10° W 05:27:10 83° S 05:33:11 10° E visible
07 Jul - 07:09:04 10° W 07:14:39 87° NNW 07:21:18 10° ENE daylight
07 Jul - 08:56:10 10° W 09:01:58 44° NNW 09:08:35 10° NE daylight
07 Jul - 10:45:22 10° WNW 10:48:52 15° NW 10:52:32 10° N daylight
